Flag for Canada Weather past 2 weeks in Québec, Quebec, Canada

Now
36 °F

Overcast.


Feels Like: 36 °F
Forecast: 38 / 50 °F
Wind: No wind

Location: Quebec Weather Station

Current Time: Apr 26, 2015 at 4:45:35 AM

Latest Report: Apr 26, 2015 at 4:00 AM


Visibility: 15 mi

Pressure: 29.65 "Hg

Humidity: 100%

Dew point: 36 °F

Location of QuébecLocation

Historic Weather in Québec — Graph

°F

Québec temperature yesterday

Maximum temperature yesterday: 45 °F (at 2:00 PM)
Minimum temperature yesterday: 34 °F (at 12:00 AM)
Average temperature yesterday: 39 °F

Past Weeks' High & Low Weather Summary

 TemperatureHumidityPressure
High70 °F (Apr 13, 4:00 PM)100% (Apr 21, 1:00 PM)30.48 "Hg (Apr 21, 1:00 PM)
Low28 °F (Apr 16, 6:00 AM)20% (Apr 15, 5:00 PM)29.40 "Hg (Apr 11, 3:00 AM)
Average42 °F66%29.89 "Hg
* Reported Apr 11 3:00 AM — Apr 26 3:00 AM, Québec, Weather by CustomWeather, © 2015

Note: Actual official high and low records may vary slightly from our data, if they occured in-between our weather recording intervals... More about our weather records

Advertising

Québec weather history for previous 24 hours

 ConditionsComfort  
Time TempWeatherWind HumidityBarometerVisibility
3:00 AM
Sun, Apr 26
36 °FOvercast.No wind100%29.67 "Hg15 mi
2:00 AM36 °FOvercast.2 mph93%29.69 "Hg15 mi
1:00 AM37 °FPassing clouds.2 mph93%29.70 "Hg15 mi
12:00 AM37 °FPassing clouds.No wind93%29.71 "Hg15 mi
11:00 PM
Sat, Apr 25
37 °FPassing clouds.2 mph93%29.72 "Hg15 mi
10:00 PM39 °FPartly cloudy.3 mph87%29.73 "Hg15 mi
9:00 PM41 °FPassing clouds.3 mph81%29.73 "Hg15 mi
8:00 PM41 °FPartly sunny.6 mph81%29.72 "Hg15 mi
7:00 PM43 °FBroken clouds.5 mph71%29.72 "Hg30 mi
6:00 PM45 °FBroken clouds.3 mph66%29.72 "Hg30 mi
5:00 PM43 °FBroken clouds.3 mph71%29.72 "Hg30 mi
4:00 PM43 °FSprinkles. More clouds than sun.8 mph76%29.72 "Hg15 mi
3:00 PM45 °FMore clouds than sun.6 mph71%29.72 "Hg15 mi
2:00 PM45 °FSprinkles. Overcast.2 mph71%29.72 "Hg10 mi
1:00 PM43 °FScattered showers. Overcast.5 mph71%29.72 "Hg12 mi
12:00 PM43 °FScattered showers. More clouds than sun.2 mph81%29.71 "Hg12 mi
11:00 AM39 °FSprinkles. More clouds than sun.7 mph87%29.71 "Hg6 mi
10:00 AM41 °FScattered showers. Mostly cloudy.3 mph70%29.69 "Hg12 mi
9:00 AM39 °FCloudy.5 mph81%29.69 "Hg12 mi
8:00 AM37 °FScattered showers. Broken clouds.7 mph81%29.69 "Hg12 mi
7:00 AM37 °FSprinkles. Mostly cloudy.3 mph81%29.67 "Hg12 mi
6:56 AM37 °FSprinkles. Mostly cloudy.5 mph75%29.67 "Hg15 mi
6:00 AM36 °FMostly cloudy.7 mph81%29.66 "Hg15 mi
5:00 AM36 °FMostly cloudy.10 mph81%29.65 "Hg15 mi
4:00 AM36 °FMostly cloudy.13 mph81%29.64 "Hg15 mi
Weather by CustomWeather, © 2015

See weather overviewHow to use our weather pages